Abilene, TX

1:25 PM CDT on September 30, 2016 (GMT -0500)
Abilene Regional

Weather History for KABI - July, 2013

Change the Weather History Date:

Monday, July 22, 2013

  Actual Average Record
Temperature  
Mean Temperature 84 °F 84 °F  
Max Temperature 93 °F 95 °F 106 °F (1943)
Min Temperature 75 °F 72 °F 64 °F (1970)
Degree Days  
Heating Degree Days 0 0  
Month to date heating degree days 0 0  
Since 1 June heating degree days 0 1  
Since 1 July heating degree days 0 0  
Cooling Degree Days 19 19  
Month to date cooling degree days 363 391  
Year to date cooling degree days 1368 1223  
Since 1 June cooling degree days 887 826  
Growing Degree Days 34 (Base 50)    
Moisture  
Dew Point 68 °F    
Average Humidity 63    
Maximum Humidity 82    
Minimum Humidity 44    
Precipitation  
Precipitation 0.00 in 0.05 in 2.90 in (1902)
Month to date precipitation 4.39 1.35  
Year to date precipitation 15.74 13.85  
Sea Level Pressure  
Sea Level Pressure 29.89 in    
Wind  
Wind Speed 10 mph (South)    
Max Wind Speed 18 mph    
Max Gust Speed 24 mph    
Visibility 10 miles    
Events      
T = Trace of Precipitation, MM = Missing Value Source: NWS Daily Summary

Daily Weather History Graph

Daily Weather History Graph

Search for Another Location

Airport or City:

Trip Planner

Search our weather history database for the weather conditions in past years. The results will help you decide how hot, cold, wet, or windy it might be!

Date:

Astronomy

Jul. 22, 2013 Rise Set
Actual Time 6:46 AM CDT 8:43 PM CDT
Civil Twilight 6:19 AM CDT 9:10 PM CDT
Nautical Twilight 5:46 AM CDT 9:43 PM CDT
Astronomical Twilight 5:10 AM CDT 10:18 PM CDT
Moon 8:36 PM CDT (7/22) 6:41 AM CDT (7/22)
Length of Visible Light 14h 51m
Length of Day
13h 56m
Full, 100% of the Moon is Illuminated
Jul 22
Full
Jul 22
Full
Jul 29
Last Quarter
Aug 6
New
Aug 14
First Quarter

Hourly Weather History & Observations

Time (CDT) Temp. Heat Index Dew Point Humidity Pressure Visibility Wind Dir Wind Speed Gust Speed Precip Events Conditions
12:52 AM 78.1 °F - 68.0 °F 71% 29.88 in 10.0 mi SSE 5.8 mph - N/A   Clear
1:52 AM 75.9 °F - 68.0 °F 76% 29.88 in 10.0 mi South 4.6 mph - N/A   Clear
2:52 AM 75.9 °F - 68.0 °F 76% 29.88 in 10.0 mi SSE 5.8 mph - N/A   Clear
3:52 AM 77.0 °F - 66.9 °F 71% 29.87 in 10.0 mi South 9.2 mph - N/A   Clear
4:52 AM 77.0 °F - 68.0 °F 74% 29.87 in 10.0 mi South 9.2 mph - N/A   Clear
5:52 AM 75.9 °F - 68.0 °F 76% 29.88 in 10.0 mi South 5.8 mph - N/A   Clear
6:52 AM 75.0 °F - 68.0 °F 79% 29.90 in 10.0 mi South 6.9 mph - N/A   Clear
7:52 AM 75.9 °F - 69.1 °F 79% 29.90 in 10.0 mi South 4.6 mph - N/A   Clear
8:52 AM 80.1 °F 83.2 °F 70.0 °F 71% 29.92 in 10.0 mi South 11.5 mph - N/A   Scattered Clouds
9:13 AM 80.6 °F 83.9 °F 69.8 °F 70% 30.00 in 10.0 mi SSW 12.7 mph 20.7 mph N/A   Mostly Cloudy
9:52 AM 82.9 °F 87.5 °F 71.1 °F 67% 29.92 in 10.0 mi SSW 12.7 mph - N/A   Mostly Cloudy
10:20 AM 82.4 °F 86.3 °F 69.8 °F 66% 30.01 in 10.0 mi SSW 15.0 mph - N/A   Scattered Clouds
10:29 AM 82.4 °F 86.3 °F 69.8 °F 66% 30.01 in 10.0 mi SSW 16.1 mph 20.7 mph N/A   Mostly Cloudy
10:52 AM 84.0 °F 88.4 °F 70.0 °F 63% 29.93 in 10.0 mi SSW 15.0 mph - N/A   Mostly Cloudy
11:33 AM 84.2 °F 88.4 °F 69.8 °F 62% 30.01 in 10.0 mi SSW 15.0 mph - N/A   Scattered Clouds
11:52 AM 87.1 °F 92.0 °F 70.0 °F 57% 29.92 in 10.0 mi SW 16.1 mph - N/A   Partly Cloudy
12:52 PM 89.1 °F 94.1 °F 70.0 °F 53% 29.91 in 10.0 mi SSW 15.0 mph 19.6 mph N/A   Partly Cloudy
1:52 PM 91.0 °F 95.6 °F 69.1 °F 48% 29.90 in 10.0 mi South 12.7 mph - N/A   Partly Cloudy
2:52 PM 90.0 °F 93.6 °F 68.0 °F 48% 29.87 in 10.0 mi South 12.7 mph - N/A   Mostly Cloudy
3:52 PM 91.0 °F 95.2 °F 68.0 °F 47% 29.86 in 10.0 mi South 16.1 mph - N/A   Mostly Cloudy
4:52 PM 93.0 °F 97.4 °F 68.0 °F 44% 29.84 in 10.0 mi SSW 10.4 mph - N/A   Scattered Clouds
5:52 PM 91.0 °F 94.3 °F 66.9 °F 45% 29.83 in 10.0 mi South 10.4 mph - N/A   Scattered Clouds
6:52 PM 91.0 °F 94.3 °F 66.9 °F 45% 29.81 in 10.0 mi South 13.8 mph - N/A   Clear
7:52 PM 89.1 °F 92.1 °F 66.9 °F 48% 29.81 in 10.0 mi SSE 11.5 mph - N/A   Clear
8:52 PM 86.0 °F 88.8 °F 66.9 °F 53% 29.84 in 10.0 mi SSE 8.1 mph - N/A   Clear
9:52 PM 82.9 °F 85.4 °F 66.9 °F 58% 29.85 in 10.0 mi South 5.8 mph - N/A   Clear
10:52 PM 81.0 °F 83.3 °F 66.9 °F 62% 29.88 in 10.0 mi SE 6.9 mph - N/A   Clear
11:52 PM 81.0 °F 83.3 °F 66.9 °F 62% 29.88 in 10.0 mi SE 6.9 mph - N/A   Clear